This demonstration page uses our WeatherBlox Daily Observations layout. Learn more.

39.01783, -85.05884

Hourly Observations for June 1, 2020

Temp ( °F °C ) Dew Point ( °F °C ) Humidity (%) Winds ( mph kmh ) Pressure ( in mb ) Visibility ( mi km ) Precip ( " mm )
12:52 am 00:52 Clear 57 13.9 40 4.4 53 53 E 10 17 30.27 1025 10 16.0934 0 0
1:52 am 01:52 Clear 57 13.9 38 3.3 49 49 E 8 13 30.28 1026 10 16.0934 0 0
2:52 am 02:52 Clear 56 13.3 38 3.3 51 51 ENE 12 19 30.28 1025 10 16.0934 0 0
3:52 am 03:52 Clear 54 12.2 39 3.9 57 57 E 5 7 30.27 1025 10 16.0934 0 0
4:52 am 04:52 Clear 53 11.7 39 3.9 59 59 E 5 7 30.29 1026 10 16.0934 0 0
5:52 am 05:52 Mostly Clear 53 11.7 39 3.9 59 59 ENE 5 7 30.3 1026 10 16.0934 0 0
6:52 am 06:52 Mostly Sunny 52 11.1 41 5 66 66 E 5 7 30.31 1026 10 16.0934 0 0
7:52 am 07:52 Mostly Sunny 55 12.8 42 5.6 62 62 ESE 6 9 30.31 1027 10 16.0934 0 0
8:52 am 08:52 Sunny 59 15 42 5.6 54 54 SSE 7 11 30.33 1027 10 16.0934 0 0
9:52 am 09:52 Sunny 62 16.7 43 6.1 50 50 SSE 9 15 30.32 1027 10 16.0934 0 0
10:52 am 10:52 Sunny 65 18.3 42 5.6 43 43 ESE 6 9 30.32 1027 10 16.0934 0 0
11:52 am 11:52 Mostly Sunny 67 19.4 42 5.6 41 41 SE 5 7 30.31 1026 10 16.0934 0 0
12:52 pm 12:52 Partly Cloudy 69 20.6 41 5 36 36 Calm 30.29 1026 10 16.0934 0 0
1:52 pm 13:52 Mostly Cloudy 71 21.7 43 6.1 36 36 VRB 5 7 30.26 1025 10 16.0934 0 0
2:52 pm 14:52 Mostly Sunny 73 22.8 39 3.9 29 29 S 3 6 30.24 1024 10 16.0934 0 0
3:52 pm 15:52 Mostly Sunny 74 23.3 39 3.9 28 28 SSW 3 6 30.22 1023 10 16.0934 0 0
4:52 pm 16:52 Mostly Sunny 76 24.4 43 6.1 31 31 W 8 13 30.19 1022 10 16.0934 0 0
5:52 pm 17:52 Partly Cloudy 75 23.9 41 5 29 29 S 6 9 30.17 1022 10 16.0934 0 0
6:52 pm 18:52 Mostly Cloudy 73 22.8 41 5 32 32 SSW 5 7 30.16 1021 10 16.0934 0 0
7:52 pm 19:52 Cloudy 71 21.7 44 6.7 38 38 S 3 6 30.14 1021 10 16.0934 0.001 0.001
8:52 pm 20:52 Cloudy 72 22.2 40 4.4 31 31 Calm 30.15 1021 10 16.0934 0 0
9:52 pm 21:52 Cloudy 70 21.1 42 5.6 37 37 SSW 3 6 30.14 1021 10 16.0934 0 0
10:52 pm 22:52 Mostly Cloudy 68 20 46 7.8 45 45 S 7 11 30.14 1021 10 16.0934 0 0
11:52 pm 23:52 Mostly Cloudy 68 20 45 7.2 44 44 SSW 8 13 30.12 1020 10 16.0934 0 0

Powered by AerisWeather